Weather History for Valparaiso, IN

Change the Weather History Date:

Saturday, May 25, 2013

  Actual Average Record
Temperature  
Mean Temperature 48 °F 62 °F  
Max Temperature 60 °F 73 °F 87 °F (2010)
Min Temperature 36 °F 51 °F 36 °F (2013)
Degree Days  
Heating Degree Days 17 5  
Month to date heating degree days 149 195  
Since 1 July heating degree days 6042 6254  
Cooling Degree Days 0 2  
Month to date cooling degree days 59 28  
Year to date cooling degree days 65 33  
Moisture  
Dew Point 41 °F    
Average Humidity 73    
Maximum Humidity 97    
Minimum Humidity 61    
Precipitation  
Precipitation 0.00 in 0.12 in 1.72 in (2011)
Month to date precipitation 1.58 3.17  
Year to date precipitation 11.85 12.35  
Sea Level Pressure  
Sea Level Pressure 30.36 in    
Wind  
Wind Speed 3 mph (NNW)    
Max Wind Speed 9 mph    
Max Gust Speed 12 mph    
Visibility 10 miles    
Events      
T = Trace of Precipitation, MM = Missing Value Source: NWS Daily Summary

Daily Weather History Graph

Daily Weather History Graph

Search for Another Location

Airport:

Trip Planner

Search our weather history database for the weather conditions in past years. The results will help you decide how hot, cold, wet, or windy it might be!

Date:

Astronomy

May. 25, 2013 Rise Set
Actual Time 5:20 AM CDT 8:09 PM CDT
Civil Twilight 4:47 AM CDT 8:42 PM CDT
Nautical Twilight 4:06 AM CDT 9:23 PM CDT
Astronomical Twilight 3:19 AM CDT 10:11 PM CDT
Moon 8:57 PM CDT (5/25) 5:47 AM CDT (5/25)
Length of Visible Light 15h 54m
Length of Day
14h 49m
Full, 100% of the Moon is Illuminated
May 25
Full
May 31
Last Quarter
Jun 8
New
Jun 16
First Quarter
Jun 23
Full

Hourly Weather History & Observations

Time (CDT) Temp. Windchill Dew Point Humidity Pressure Visibility Wind Dir Wind Speed Gust Speed Precip Events Conditions
12:53 AM 39.0 °F - 35.1 °F 86% 30.38 in 10.0 mi Calm Calm - N/A   Clear
1:53 AM 37.0 °F 34.5 °F 34.0 °F 89% 30.36 in 10.0 mi ENE 3.5 mph - N/A   Clear
2:53 AM 39.0 °F 36.8 °F 37.0 °F 93% 30.33 in 10.0 mi East 3.5 mph - N/A   Clear
3:53 AM 37.9 °F - 37.0 °F 97% 30.34 in 10.0 mi Calm Calm - N/A   Clear
4:53 AM 39.9 °F - 37.9 °F 93% 30.37 in 10.0 mi Calm Calm - N/A   Clear
5:53 AM 42.1 °F 40.2 °F 39.0 °F 89% 30.38 in 10.0 mi NNE 3.5 mph - N/A   Clear
6:53 AM 44.1 °F - 39.0 °F 82% 30.40 in 10.0 mi Calm Calm - N/A   Mostly Cloudy
7:53 AM 46.0 °F 43.1 °F 39.0 °F 76% 30.41 in 10.0 mi NE 5.8 mph - N/A   Overcast
8:53 AM 48.9 °F - 39.9 °F 71% 30.41 in 10.0 mi Calm Calm - N/A   Overcast
9:53 AM 52.0 °F - 41.0 °F 66% 30.40 in 10.0 mi Calm Calm - N/A   Overcast
10:53 AM 53.1 °F - 41.0 °F 64% 30.40 in 10.0 mi Calm Calm - N/A   Overcast
11:53 AM 54.0 °F - 42.1 °F 64% 30.41 in 10.0 mi West 3.5 mph - N/A   Overcast
12:53 PM 53.1 °F - 43.0 °F 69% 30.40 in 10.0 mi West 4.6 mph - N/A   Overcast
1:53 PM 55.9 °F - 44.1 °F 64% 30.35 in 10.0 mi Calm Calm - N/A   Overcast
2:53 PM 57.9 °F - 48.0 °F 70% 30.35 in 10.0 mi Calm Calm - N/A   Overcast
3:53 PM 59.0 °F - 46.9 °F 64% 30.32 in 10.0 mi Variable 4.6 mph - N/A   Mostly Cloudy
4:53 PM 60.1 °F - 46.9 °F 62% 30.29 in 10.0 mi NNE 6.9 mph - N/A   Overcast
5:53 PM 57.0 °F - 46.0 °F 67% 30.31 in 10.0 mi North 5.8 mph - N/A   Overcast
6:53 PM 54.0 °F - 41.0 °F 62% 30.32 in 10.0 mi North 6.9 mph - N/A   Overcast
7:53 PM 52.0 °F - 39.0 °F 61% 30.32 in 10.0 mi NNW 5.8 mph - N/A   Overcast
8:53 PM 51.1 °F - 39.0 °F 63% 30.32 in 10.0 mi NW 3.5 mph - N/A   Overcast
9:53 PM 50.0 °F - 39.0 °F 66% 30.33 in 10.0 mi WNW 4.6 mph - N/A   Overcast
10:53 PM 48.9 °F - 39.9 °F 71% 30.34 in 10.0 mi WNW 4.6 mph - N/A   Overcast
11:53 PM 48.0 °F - 39.9 °F 74% 30.33 in 10.0 mi Calm Calm - N/A   Overcast